TimeCST,TemperatureF,Dew PointF,Humidity,Sea Level PressureIn,VisibilityMPH,Wind Direction,Wind SpeedMPH,Gust SpeedMPH,PrecipitationIn,Events,Conditions,WindDirDegrees,DateUTC
12:33 AM,60.8,57.2,88,30.04,4.0,North,6.9,-,0.00,Rain,Light Rain,10,2011-12-15 06:33:00
12:53 AM,59.0,55.9,90,30.01,5.0,North,9.2,-,0.00,Rain,Light Rain,10,2011-12-15 06:53:00
1:08 AM,57.2,55.4,94,30.05,2.5,North,6.9,-,0.01,Rain,Light Rain,10,2011-12-15 07:08:00
1:30 AM,57.2,55.4,94,30.04,3.0,NNE,5.8,-,0.01,Rain,Light Rain,30,2011-12-15 07:30:00
1:53 AM,57.9,55.0,90,30.00,7.0,NNE,6.9,-,0.01,Rain,Light Rain,30,2011-12-15 07:53:00
2:53 AM,59.0,55.0,87,30.01,7.0,NNE,5.8,-,0.00,Rain,Light Rain,30,2011-12-15 08:53:00
3:53 AM,57.9,55.0,90,30.03,7.0,NNE,4.6,-,0.01,Rain,Light Rain,30,2011-12-15 09:53:00
4:53 AM,57.0,54.0,89,30.02,10.0,NNE,8.1,-,0.00,Rain,Light Rain,30,2011-12-15 10:53:00
6:53 AM,57.0,51.1,81,30.04,10.0,NNE,11.5,-,N/A,,Overcast,30,2011-12-15 12:53:00
7:26 AM,57.2,51.8,82,30.08,10.0,NNE,5.8,-,N/A,,Overcast,30,2011-12-15 13:26:00
7:53 AM,57.0,50.0,77,30.05,10.0,NNE,3.5,-,N/A,,Overcast,30,2011-12-15 13:53:00
8:53 AM,57.0,48.9,74,30.07,10.0,NE,4.6,-,N/A,,Overcast,50,2011-12-15 14:53:00
9:53 AM,57.9,48.9,72,30.09,10.0,Variable,3.5,-,N/A,,Unknown,0,2011-12-15 15:53:00
10:49 AM,57.2,48.2,72,30.13,10.0,NNE,9.2,-,N/A,,Overcast,20,2011-12-15 16:49:00
10:53 AM,57.9,48.9,72,30.10,10.0,NNE,6.9,-,N/A,,Overcast,20,2011-12-15 16:53:00
11:53 AM,55.9,48.0,75,30.11,6.0,NNE,13.8,18.4,0.00,Rain,Light Rain,20,2011-12-15 17:53:00
12:51 PM,57.2,46.4,67,30.10,10.0,NNE,15.0,23.0,0.00,,Overcast,20,2011-12-15 18:51:00
1:09 PM,57.2,46.4,67,30.09,10.0,NNE,16.1,24.2,N/A,,Overcast,30,2011-12-15 19:09:00
1:31 PM,55.4,46.4,72,30.08,10.0,NE,13.8,24.2,N/A,,Overcast,40,2011-12-15 19:31:00
1:46 PM,55.4,46.4,72,30.07,10.0,NNE,16.1,25.3,N/A,,Overcast,30,2011-12-15 19:46:00
1:53 PM,55.9,46.0,69,30.05,10.0,NNE,13.8,23.0,N/A,,Overcast,30,2011-12-15 19:53:00
2:53 PM,55.0,46.9,74,30.05,10.0,NE,10.4,16.1,N/A,,Overcast,50,2011-12-15 20:53:00
3:53 PM,53.1,48.0,83,30.08,2.5,NNE,8.1,-,0.02,Rain,Rain,20,2011-12-15 21:53:00
4:04 PM,53.6,48.2,82,30.10,7.0,NNE,10.4,-,0.00,Rain,Light Rain,30,2011-12-15 22:04:00
5:36 PM,51.8,46.4,82,30.11,10.0,North,12.7,-,N/A,,Overcast,10,2011-12-15 23:36:00
5:46 PM,51.8,46.4,82,30.12,9.0,NNE,12.7,18.4,N/A,,Overcast,20,2011-12-15 23:46:00
5:53 PM,52.0,46.9,83,30.10,9.0,NNE,11.5,21.9,N/A,,Overcast,20,2011-12-15 23:53:00
6:39 PM,50.0,46.4,87,30.14,5.0,North,12.7,20.7,N/A,,Overcast,10,2011-12-16 00:39:00
6:53 PM,50.0,46.0,86,30.14,5.0,North,9.2,-,0.00,Rain,Light Rain,10,2011-12-16 00:53:00
7:35 PM,50.0,46.4,87,30.16,8.0,North,9.2,19.6,0.00,,Overcast,10,2011-12-16 01:35:00
7:53 PM,48.9,45.0,86,30.15,9.0,North,9.2,16.1,0.00,,Overcast,10,2011-12-16 01:53:00
8:01 PM,48.2,44.6,87,30.17,9.0,North,9.2,18.4,N/A,,Overcast,360,2011-12-16 02:01:00
8:53 PM,48.9,45.0,86,30.17,9.0,NNE,6.9,-,N/A,,Overcast,20,2011-12-16 02:53:00
9:16 PM,48.2,44.6,87,30.20,8.0,North,6.9,-,N/A,,Overcast,350,2011-12-16 03:16:00
9:53 PM,48.9,46.0,90,30.18,2.5,North,10.4,-,0.00,Rain,Light Rain,10,2011-12-16 03:53:00
10:01 PM,48.2,46.4,93,30.20,3.0,North,8.1,-,0.00,Rain,Light Rain,360,2011-12-16 04:01:00
10:53 PM,48.0,45.0,89,30.19,10.0,North,10.4,-,0.00,,Overcast,350,2011-12-16 04:53:00
11:53 PM,46.9,44.1,90,30.19,10.0,NNE,13.8,18.4,N/A,,Overcast,20,2011-12-16 05:53:00